CDT,Max TemperatureF,Mean TemperatureF,Min TemperatureF,Max Dew PointF,MeanDew PointF,Min DewpointF,Max Humidity, Mean Humidity, Min Humidity, Max Sea Level PressureIn, Mean Sea Level PressureIn, Min Sea Level PressureIn, Max VisibilityMiles, Mean VisibilityMiles, Min VisibilityMiles, Max Wind SpeedMPH, Mean Wind SpeedMPH, Max Gust SpeedMPH,PrecipitationIn, CloudCover, Events, WindDirDegrees
2012-10-1,61,59,56,55,53,48,93,80,67,29.82,29.71,29.63,10,7,2,17,10,24,0.40,7,Rain,16
2012-10-2,59,58,56,55,54,53,93,90,86,29.91,29.77,29.66,10,5,2,14,6,18,0.04,8,Rain,286
2012-10-3,75,65,55,54,53,49,93,68,43,30.15,30.03,29.93,10,8,5,21,7,25,0.00,4,,202
2012-10-4,79,68,56,59,55,51,86,66,45,30.23,30.17,30.13,10,10,10,16,5,21,0.00,1,,205
2012-10-5,67,55,43,57,48,39,89,74,58,30.16,30.12,30.01,10,9,4,21,7,29,0.51,5,Rain-Thunderstorm,346
2012-10-6,56,47,38,41,36,31,92,67,41,30.25,30.19,30.16,10,10,10,14,6,21,0.00,4,,330
2012-10-7,55,47,39,37,34,31,86,66,45,30.25,30.22,30.18,10,10,9,13,6,23,0.00,4,,329
2012-10-8,60,49,38,39,35,31,92,64,36,30.27,30.21,30.14,10,10,9,8,1,13,0.00,0,,19
2012-10-9,64,50,36,44,39,34,92,68,43,30.16,30.09,29.98,10,9,1,16,4,22,0.00,0,,202
2012-10-10,58,48,37,45,37,27,92,64,35,30.28,30.17,29.99,10,10,10,20,7,26,0.00,3,,301
2012-10-11,63,49,34,44,35,31,92,63,34,30.31,30.26,30.20,10,10,2,14,4,16,T,2,,198
2012-10-12,70,60,50,50,48,45,96,72,48,30.34,30.27,30.21,10,10,3,12,2,15,0.19,4,Rain,56
2012-10-13,79,64,49,64,55,46,93,75,56,30.27,30.13,29.95,10,10,6,20,7,23,0.00,4,,164
2012-10-14,74,66,57,63,59,51,90,72,53,29.93,29.84,29.75,10,10,2,31,16,40,0.15,6,Rain,217
2012-10-15,68,56,44,50,45,41,93,68,42,30.01,29.97,29.92,10,10,7,17,4,22,0.00,1,,309
2012-10-16,75,58,41,52,46,39,96,70,44,30.00,29.90,29.75,10,9,2,15,7,23,0.00,0,,158
2012-10-17,75,66,56,57,51,46,93,65,36,29.78,29.63,29.45,10,9,2,25,11,32,0.91,4,Rain-Thunderstorm,184
2012-10-18,66,57,47,57,43,31,89,60,30,29.69,29.63,29.52,10,10,8,30,13,44,0.02,3,Rain,226
2012-10-19,56,51,45,46,42,34,86,65,43,29.80,29.67,29.59,10,9,5,16,10,24,0.08,8,Rain,235
2012-10-20,58,51,44,45,44,42,93,78,62,30.00,29.91,29.81,10,10,8,14,6,17,0.00,6,,251
2012-10-21,77,60,42,56,49,40,96,71,46,30.07,30.03,29.99,10,9,6,13,5,16,0.00,3,,128
2012-10-22,81,72,63,56,52,48,68,52,35,30.09,30.05,30.01,10,10,10,22,9,28,0.00,3,,199
2012-10-23,78,69,59,57,52,48,65,54,42,30.07,30.02,29.97,10,10,10,18,8,22,0.00,1,,191
2012-10-24,80,70,60,60,55,50,72,59,45,30.09,30.03,29.99,10,10,10,15,7,22,0.00,1,,180
2012-10-25,79,66,53,59,55,48,78,64,50,30.04,29.96,29.90,10,10,10,28,9,37,0.00,1,,194
2012-10-26,53,48,42,46,40,34,89,80,70,30.25,30.19,30.06,10,7,2,18,9,25,0.60,7,Rain,352
2012-10-27,56,47,37,36,34,31,79,60,41,30.22,30.17,30.12,10,10,9,18,10,24,0.00,1,Snow,1
2012-10-28,54,46,38,36,32,29,79,60,41,30.18,30.16,30.13,10,10,10,20,11,28,0.00,0,,350
2012-10-29,55,46,36,31,29,26,82,59,35,30.21,30.13,29.99,10,10,10,23,12,32,0.00,0,,335
2012-10-30,52,46,40,27,25,23,59,46,33,29.97,29.86,29.80,10,10,8,23,12,35,0.00,2,,313
2012-10-31,52,43,34,32,27,24,70,57,44,29.96,29.90,29.85,10,10,10,20,7,23,0.00,0,,297